User: anonymous   Login
Location: Natural Bridges National Monument
(37.6093°N, 109.9767°W)
Time: 03:12:03
(UTC-06:00)
Language:

Cosmos 1727 Rocket - Orbit

View from above orbital plane
View from above orbital plane
View from above satellite
View from above satellite

Ground track
Ground track

The orbit data is extracted from the following two-line orbital elements,

1 16511U 86008B   16203.85188329 +.00000064 +00000-0 +49649-4 0  9998
2 16511 082.9456 104.9072 0025267 123.4326 304.0638 13.75805481530594
Epoch (UTC): 21 July 2016 20:26:42
Eccentricity: 0.0025267
inclination: 82.9456°
perigee height: 960 km
apogee height: 997 km
right ascension of ascending node: 104.9072°
argument of perigee: 123.4326°
revolutions per day: 13.75805481
mean anomaly at epoch: 304.0638°
orbit number at epoch: 53059

The dashed part of the orbit path shows where the satellite is in the earth's shadow,  

DLR